Time,TemperatureF,DewpointF,PressureIn,WindDirection,WindDirectionDegrees,WindSpeedMPH,WindSpeedGustMPH,Humidity,HourlyPrecipIn,Conditions,Clouds,dailyrainin,SoftwareType,DateUTC
2013-01-31 00:03:00,76.5,51.0,27.02,SSE,160,4.9,7.6,32,0.00,,---,0.00,VWS V14.01,2013-01-31 06:03:00,
2013-01-31 00:08:00,76.5,51.0,27.02,SE,135,7.6,8.7,32,0.00,,---,0.00,VWS V14.01,2013-01-31 06:08:00,
2013-01-31 00:13:00,76.5,51.0,27.02,SE,131,5.4,5.4,32,0.00,,---,0.00,VWS V14.01,2013-01-31 06:13:00,
2013-01-31 00:18:00,76.5,51.0,27.02,SE,128,5.4,10.1,32,0.00,,---,0.00,VWS V14.01,2013-01-31 06:18:00,
2013-01-31 00:23:00,76.5,51.0,27.02,SE,126,4.9,6.7,32,0.00,,---,0.00,VWS V14.01,2013-01-31 06:23:00,
2013-01-31 00:28:00,76.5,51.0,27.02,East,95,4.9,5.8,32,0.00,,---,0.00,VWS V14.01,2013-01-31 06:28:00,
2013-01-31 00:33:00,76.5,51.0,27.02,SE,128,7.6,7.6,32,0.00,,---,0.00,VWS V14.01,2013-01-31 06:33:00,
2013-01-31 00:38:00,76.5,51.0,27.02,ESE,109,5.4,5.8,32,0.00,,---,0.00,VWS V14.01,2013-01-31 06:38:00,
2013-01-31 00:43:00,76.5,51.0,27.02,ESE,115,10.5,10.5,32,0.00,,---,0.00,VWS V14.01,2013-01-31 06:43:00,
2013-01-31 00:48:00,76.5,51.0,27.02,SE,130,5.4,10.1,32,0.00,,---,0.00,VWS V14.01,2013-01-31 06:48:00,
2013-01-31 00:53:00,76.5,51.0,27.02,SE,128,5.4,5.4,32,0.00,,---,0.00,VWS V14.01,2013-01-31 06:53:00,
2013-01-31 00:58:00,76.5,51.0,27.02,SE,134,4.9,8.7,32,0.00,,---,0.00,VWS V14.01,2013-01-31 06:58:00,
2013-01-31 01:03:00,76.5,51.0,27.02,SE,134,3.6,8.3,32,0.00,,---,0.00,VWS V14.01,2013-01-31 07:03:00,
2013-01-31 01:08:00,76.5,51.0,27.02,SSE,150,11.0,15.4,32,0.00,,---,0.00,VWS V14.01,2013-01-31 07:08:00,
2013-01-31 01:13:00,76.5,51.0,27.02,SE,144,5.8,7.6,32,0.00,,---,0.00,VWS V14.01,2013-01-31 07:13:00,
2013-01-31 01:18:00,76.5,51.0,27.02,SSE,153,8.3,12.3,32,0.00,,---,0.00,VWS V14.01,2013-01-31 07:18:00,
2013-01-31 01:23:00,76.5,51.0,27.02,SE,144,7.6,8.1,32,0.00,,---,0.00,VWS V14.01,2013-01-31 07:23:00,
2013-01-31 01:28:00,76.5,51.0,27.02,SE,138,4.0,8.7,32,0.00,,---,0.00,VWS V14.01,2013-01-31 07:28:00,
2013-01-31 01:33:00,76.5,51.0,27.02,SE,136,3.6,8.1,32,0.00,,---,0.00,VWS V14.01,2013-01-31 07:33:00,
2013-01-31 01:38:00,76.5,51.0,27.02,SE,133,5.4,7.6,32,0.00,,---,0.00,VWS V14.01,2013-01-31 07:38:00,
2013-01-31 01:43:00,76.5,51.0,27.02,SE,124,7.2,7.6,32,0.00,,---,0.00,VWS V14.01,2013-01-31 07:43:00,
2013-01-31 01:48:00,76.5,51.0,27.02,SE,126,10.1,10.1,32,0.00,,---,0.00,VWS V14.01,2013-01-31 07:48:00,
2013-01-31 01:53:00,76.5,51.0,27.02,ESE,111,5.8,11.0,32,0.00,,---,0.00,VWS V14.01,2013-01-31 07:53:00,
2013-01-31 01:58:00,76.5,51.0,27.02,ESE,119,3.6,7.6,32,0.00,,---,0.00,VWS V14.01,2013-01-31 07:58:00,
2013-01-31 02:03:00,76.5,51.0,27.02,SSE,150,10.1,11.4,32,0.00,,---,0.00,VWS V14.01,2013-01-31 08:03:00,
2013-01-31 02:08:00,76.5,51.0,26.99,ESE,118,4.0,5.8,32,0.00,,---,0.00,VWS V14.01,2013-01-31 08:08:00,
2013-01-31 02:13:00,76.5,51.0,26.99,SE,125,5.8,5.8,32,0.00,,---,0.00,VWS V14.01,2013-01-31 08:13:00,
2013-01-31 02:18:00,76.5,51.0,26.99,SE,144,8.3,8.7,32,0.00,,---,0.00,VWS V14.01,2013-01-31 08:18:00,
2013-01-31 02:23:00,76.5,51.0,26.99,ESE,118,8.1,8.1,32,0.00,,---,0.00,VWS V14.01,2013-01-31 08:23:00,
2013-01-31 02:28:00,76.5,51.0,26.99,South,175,5.8,8.3,32,0.00,,---,0.00,VWS V14.01,2013-01-31 08:28:00,
2013-01-31 02:33:00,76.5,51.0,26.99,SE,131,8.3,8.3,32,0.00,,---,0.00,VWS V14.01,2013-01-31 08:33:00,
2013-01-31 02:38:00,76.5,51.0,26.99,ESE,105,7.6,7.6,32,0.00,,---,0.00,VWS V14.01,2013-01-31 08:38:00,
2013-01-31 02:43:00,76.5,51.0,26.99,SE,128,5.8,8.1,32,0.00,,---,0.00,VWS V14.01,2013-01-31 08:43:00,
2013-01-31 02:48:00,76.5,51.0,26.99,SE,140,5.4,6.3,32,0.00,,---,0.00,VWS V14.01,2013-01-31 08:48:00,
2013-01-31 02:53:00,76.5,51.0,26.99,SE,130,5.8,13.2,32,0.00,,---,0.00,VWS V14.01,2013-01-31 08:53:00,
2013-01-31 02:58:00,76.5,51.0,26.99,ESE,116,4.0,8.1,32,0.00,,---,0.00,VWS V14.01,2013-01-31 08:58:00,
2013-01-31 03:03:00,76.5,51.0,26.99,ESE,113,10.5,10.5,32,0.00,,---,0.00,VWS V14.01,2013-01-31 09:03:00,
2013-01-31 03:08:00,76.5,51.0,26.99,SE,124,4.9,11.0,32,0.00,,---,0.00,VWS V14.01,2013-01-31 09:08:00,
2013-01-31 03:13:00,76.5,51.0,26.99,ESE,112,5.8,6.3,32,0.00,,---,0.00,VWS V14.01,2013-01-31 09:13:00,
2013-01-31 03:18:00,76.5,51.0,26.99,SE,134,10.1,10.5,32,0.00,,---,0.00,VWS V14.01,2013-01-31 09:18:00,
2013-01-31 03:23:00,76.5,51.0,26.99,ENE,65,8.7,9.6,32,0.00,,---,0.00,VWS V14.01,2013-01-31 09:23:00,
2013-01-31 03:28:00,76.5,51.0,26.99,ESE,112,8.3,8.3,32,0.00,,---,0.00,VWS V14.01,2013-01-31 09:28:00,
2013-01-31 03:33:00,76.5,51.0,26.99,SE,125,4.0,5.8,32,0.00,,---,0.00,VWS V14.01,2013-01-31 09:33:00,
2013-01-31 03:38:00,76.5,51.0,26.99,ESE,122,5.8,6.3,32,0.00,,---,0.00,VWS V14.01,2013-01-31 09:38:00,
2013-01-31 03:43:00,76.5,51.0,26.99,ESE,111,8.3,8.7,32,0.00,,---,0.00,VWS V14.01,2013-01-31 09:43:00,
2013-01-31 03:48:00,76.5,51.0,26.99,SE,133,8.1,10.5,32,0.00,,---,0.00,VWS V14.01,2013-01-31 09:48:00,
2013-01-31 03:53:00,76.5,51.0,26.99,SE,131,4.0,11.0,32,0.00,,---,0.00,VWS V14.01,2013-01-31 09:53:00,
2013-01-31 03:58:00,76.5,51.0,26.99,SSE,150,10.1,10.1,32,0.00,,---,0.00,VWS V14.01,2013-01-31 09:58:00,
2013-01-31 04:03:00,76.5,51.0,26.99,ESE,110,4.0,5.8,32,0.00,,---,0.00,VWS V14.01,2013-01-31 10:03:00,
2013-01-31 04:08:00,76.5,51.0,26.99,SSE,147,3.6,6.3,32,0.00,,---,0.00,VWS V14.01,2013-01-31 10:08:00,
2013-01-31 04:13:00,76.5,51.0,26.99,SE,142,7.6,7.6,32,0.00,,---,0.00,VWS V14.01,2013-01-31 10:13:00,
2013-01-31 04:18:00,76.5,51.0,26.99,SE,125,5.4,5.4,32,0.00,,---,0.00,VWS V14.01,2013-01-31 10:18:00,
2013-01-31 04:23:00,76.5,51.0,26.99,SE,124,5.8,10.1,32,0.00,,---,0.00,VWS V14.01,2013-01-31 10:23:00,
2013-01-31 04:28:00,76.5,51.0,26.99,SE,143,5.4,10.5,32,0.00,,---,0.00,VWS V14.01,2013-01-31 10:28:00,
2013-01-31 04:33:00,76.5,51.0,26.99,SSE,150,10.1,12.8,32,0.00,,---,0.00,VWS V14.01,2013-01-31 10:33:00,
2013-01-31 04:38:00,76.5,51.0,26.99,ESE,121,6.3,6.3,32,0.00,,---,0.00,VWS V14.01,2013-01-31 10:38:00,
2013-01-31 04:43:00,76.5,51.0,26.99,SE,146,5.8,5.8,32,0.00,,---,0.00,VWS V14.01,2013-01-31 10:43:00,
2013-01-31 04:48:00,76.5,51.0,26.99,SSE,151,4.0,5.8,32,0.00,,---,0.00,VWS V14.01,2013-01-31 10:48:00,
2013-01-31 04:53:00,76.5,51.0,27.02,SE,135,10.5,10.5,32,0.00,,---,0.00,VWS V14.01,2013-01-31 10:53:00,
2013-01-31 04:58:00,76.5,51.0,27.02,SE,142,13.2,13.2,32,0.00,,---,0.00,VWS V14.01,2013-01-31 10:58:00,
2013-01-31 05:03:00,76.5,51.0,27.02,SE,131,12.8,12.8,32,0.00,,---,0.00,VWS V14.01,2013-01-31 11:03:00,
2013-01-31 05:08:00,76.5,51.0,27.02,SSE,158,6.3,13.6,32,0.00,,---,0.00,VWS V14.01,2013-01-31 11:08:00,
2013-01-31 05:13:00,76.5,51.0,27.02,SSE,151,8.3,12.3,32,0.00,,---,0.00,VWS V14.01,2013-01-31 11:13:00,
2013-01-31 05:18:00,76.5,51.0,27.02,South,190,8.1,8.1,32,0.00,,---,0.00,VWS V14.01,2013-01-31 11:18:00,
2013-01-31 05:23:00,76.5,51.0,27.02,SSE,160,7.6,10.1,32,0.00,,---,0.00,VWS V14.01,2013-01-31 11:23:00,
2013-01-31 05:28:00,76.5,51.0,27.02,SSE,161,10.1,10.1,32,0.00,,---,0.00,VWS V14.01,2013-01-31 11:28:00,
2013-01-31 05:33:00,76.5,51.0,27.02,SSE,150,6.3,6.7,32,0.00,,---,0.00,VWS V14.01,2013-01-31 11:33:00,
2013-01-31 05:38:00,76.5,51.0,27.02,SSE,162,8.1,8.1,32,0.00,,---,0.00,VWS V14.01,2013-01-31 11:38:00,
2013-01-31 05:43:00,76.5,51.0,27.02,SE,134,3.6,8.1,32,0.00,,---,0.00,VWS V14.01,2013-01-31 11:43:00,
2013-01-31 05:48:00,76.5,51.0,27.02,SE,143,4.9,8.1,32,0.00,,---,0.00,VWS V14.01,2013-01-31 11:48:00,
2013-01-31 05:53:00,76.5,51.0,27.02,SE,140,4.9,10.5,32,0.00,,---,0.00,VWS V14.01,2013-01-31 11:53:00,
2013-01-31 05:58:00,76.5,51.0,27.02,SSE,149,8.1,8.3,32,0.00,,---,0.00,VWS V14.01,2013-01-31 11:58:00,
2013-01-31 06:03:00,76.5,51.0,27.02,SSE,154,8.7,8.7,32,0.00,,---,0.00,VWS V14.01,2013-01-31 12:03:00,
2013-01-31 06:08:00,76.5,51.0,27.02,SE,142,8.1,8.7,32,0.00,,---,0.00,VWS V14.01,2013-01-31 12:08:00,
2013-01-31 06:13:00,76.5,51.0,27.02,SSE,165,13.2,13.2,32,0.00,,---,0.00,VWS V14.01,2013-01-31 12:13:00,
2013-01-31 06:18:00,76.5,51.0,27.02,SSE,162,8.1,8.1,32,0.00,,---,0.00,VWS V14.01,2013-01-31 12:18:00,
2013-01-31 06:23:00,76.5,51.0,27.02,SSE,147,5.4,7.6,32,0.00,,---,0.00,VWS V14.01,2013-01-31 12:23:00,
2013-01-31 06:28:00,76.5,51.0,27.02,South,185,11.0,11.0,32,0.00,,---,0.00,VWS V14.01,2013-01-31 12:28:00,
2013-01-31 06:33:00,76.5,51.0,27.02,ESE,119,7.6,10.1,32,0.00,,---,0.00,VWS V14.01,2013-01-31 12:33:00,
2013-01-31 06:38:00,76.5,51.0,27.02,SSE,158,10.5,10.5,32,0.00,,---,0.00,VWS V14.01,2013-01-31 12:38:00,
2013-01-31 06:43:00,76.5,51.0,27.05,SE,126,4.0,10.1,32,0.00,,---,0.00,VWS V14.01,2013-01-31 12:43:00,
2013-01-31 06:48:00,76.5,51.0,27.05,SE,143,6.3,6.3,32,0.00,,---,0.00,VWS V14.01,2013-01-31 12:48:00,
2013-01-31 06:53:00,76.5,51.0,27.05,SE,136,2.7,4.0,32,0.00,,---,0.00,VWS V14.01,2013-01-31 12:53:00,
2013-01-31 06:58:00,76.5,51.0,27.05,WSW,243,3.6,4.0,32,0.00,,---,0.00,VWS V14.01,2013-01-31 12:58:00,
2013-01-31 07:03:00,76.5,51.0,27.05,SSE,154,2.7,2.7,32,0.00,,---,0.00,VWS V14.01,2013-01-31 13:03:00,
2013-01-31 07:08:00,76.5,51.0,27.05,South,182,8.3,8.3,32,0.00,,---,0.00,VWS V14.01,2013-01-31 13:08:00,
2013-01-31 07:13:00,76.5,51.0,27.05,South,173,3.6,3.6,32,0.00,,---,0.00,VWS V14.01,2013-01-31 13:13:00,
2013-01-31 07:18:00,76.5,51.0,27.05,ENE,70,2.7,4.5,32,0.00,,---,0.00,VWS V14.01,2013-01-31 13:18:00,
2013-01-31 07:23:00,76.5,51.0,27.05,East,81,13.2,13.2,32,0.00,,---,0.00,VWS V14.01,2013-01-31 13:23:00,
2013-01-31 07:28:00,76.5,51.0,27.05,ENE,63,3.1,3.1,32,0.00,,---,0.00,VWS V14.01,2013-01-31 13:28:00,
2013-01-31 07:33:00,76.5,51.0,27.05,SE,143,6.3,8.1,32,0.00,,---,0.00,VWS V14.01,2013-01-31 13:33:00,
2013-01-31 07:38:00,76.5,51.0,27.05,SE,142,3.6,3.6,32,0.00,,---,0.00,VWS V14.01,2013-01-31 13:38:00,
2013-01-31 07:43:00,76.5,51.0,27.08,NW,308,2.2,6.3,32,0.00,,---,0.00,VWS V14.01,2013-01-31 13:43:00,
2013-01-31 07:48:00,76.5,51.0,27.08,South,178,7.6,7.6,32,0.00,,---,0.00,VWS V14.01,2013-01-31 13:48:00,
2013-01-31 07:53:00,76.5,51.0,27.08,SE,125,3.6,6.3,32,0.00,,---,0.00,VWS V14.01,2013-01-31 13:53:00,
2013-01-31 07:58:00,76.5,51.0,27.08,SSW,199,13.2,13.2,32,0.00,,---,0.00,VWS V14.01,2013-01-31 13:58:00,
2013-01-31 08:03:00,76.5,51.0,27.08,SSE,155,6.3,6.3,32,0.00,,---,0.00,VWS V14.01,2013-01-31 14:03:00,
2013-01-31 08:08:00,76.5,51.0,27.08,SE,130,5.8,5.8,32,0.00,,---,0.00,VWS V14.01,2013-01-31 14:08:00,
2013-01-31 08:13:00,76.5,51.0,27.08,ESE,115,7.6,7.6,32,0.00,,---,0.00,VWS V14.01,2013-01-31 14:13:00,
2013-01-31 08:18:00,76.5,51.0,27.08,ESE,122,5.4,5.4,32,0.00,,---,0.00,VWS V14.01,2013-01-31 14:18:00,
2013-01-31 08:23:00,76.5,51.0,27.08,NNE,30,11.9,11.9,32,0.00,,---,0.00,VWS V14.01,2013-01-31 14:23:00,
2013-01-31 08:28:00,76.5,51.0,27.08,SE,126,6.7,10.1,32,0.00,,---,0.00,VWS V14.01,2013-01-31 14:28:00,
2013-01-31 08:33:00,76.5,51.0,27.08,East,79,6.3,6.3,32,0.00,,---,0.00,VWS V14.01,2013-01-31 14:33:00,
2013-01-31 08:38:00,76.5,51.0,27.08,East,97,6.3,6.3,32,0.00,,---,0.00,VWS V14.01,2013-01-31 14:38:00,
2013-01-31 08:43:00,76.5,51.0,27.08,SE,133,4.9,12.3,32,0.00,,---,0.00,VWS V14.01,2013-01-31 14:43:00,
2013-01-31 08:48:00,76.5,51.0,27.08,East,85,5.4,5.4,32,0.00,,---,0.00,VWS V14.01,2013-01-31 14:48:00,
2013-01-31 08:53:00,76.5,51.0,27.08,SE,132,5.4,6.3,32,0.00,,---,0.00,VWS V14.01,2013-01-31 14:53:00,
2013-01-31 08:58:00,76.5,51.0,27.08,ENE,70,8.7,11.0,32,0.00,,---,0.00,VWS V14.01,2013-01-31 14:58:00,
2013-01-31 09:03:00,76.5,51.0,27.08,SSE,151,10.1,10.1,32,0.00,,---,0.00,VWS V14.01,2013-01-31 15:03:00,
2013-01-31 09:08:00,76.5,51.0,27.08,East,100,8.1,8.1,32,0.00,,---,0.00,VWS V14.01,2013-01-31 15:08:00,
2013-01-31 09:13:00,76.5,51.0,27.08,East,91,5.8,5.8,32,0.00,,---,0.00,VWS V14.01,2013-01-31 15:13:00,
2013-01-31 09:18:00,76.5,51.0,27.08,SE,131,3.1,7.6,32,0.00,,---,0.00,VWS V14.01,2013-01-31 15:18:00,
2013-01-31 09:23:00,76.5,51.0,27.08,East,90,6.3,6.3,32,0.00,,---,0.00,VWS V14.01,2013-01-31 15:23:00,
2013-01-31 09:28:00,76.5,51.0,27.08,ENE,66,5.8,8.3,32,0.00,,---,0.00,VWS V14.01,2013-01-31 15:28:00,
2013-01-31 09:33:00,76.5,51.0,27.08,NE,49,10.5,10.5,32,0.00,,---,0.00,VWS V14.01,2013-01-31 15:33:00,
2013-01-31 09:38:00,76.5,51.0,27.08,SE,138,4.9,10.1,32,0.00,,---,0.00,VWS V14.01,2013-01-31 15:38:00,
2013-01-31 09:43:00,76.5,51.0,27.08,ESE,102,4.9,10.1,32,0.00,,---,0.00,VWS V14.01,2013-01-31 15:43:00,
2013-01-31 09:48:00,76.5,51.0,27.08,East,93,5.8,11.9,32,0.00,,---,0.00,VWS V14.01,2013-01-31 15:48:00,
2013-01-31 09:53:00,76.5,51.0,27.08,East,91,8.3,8.3,32,0.00,,---,0.00,VWS V14.01,2013-01-31 15:53:00,
2013-01-31 09:58:00,76.5,51.0,27.08,East,91,5.8,8.3,32,0.00,,---,0.00,VWS V14.01,2013-01-31 15:58:00,
2013-01-31 10:03:00,76.5,51.0,27.08,East,81,8.1,8.3,32,0.00,,---,0.00,VWS V14.01,2013-01-31 16:03:00,
2013-01-31 10:08:00,76.5,51.0,27.08,ENE,73,6.3,11.9,32,0.00,,---,0.00,VWS V14.01,2013-01-31 16:08:00,
2013-01-31 10:13:00,76.5,51.0,27.08,East,91,11.0,11.0,32,0.00,,---,0.00,VWS V14.01,2013-01-31 16:13:00,
2013-01-31 10:18:00,76.5,51.0,27.08,ESE,102,4.0,5.4,32,0.00,,---,0.00,VWS V14.01,2013-01-31 16:18:00,
2013-01-31 10:23:00,76.5,51.0,27.08,SSE,150,8.3,8.3,32,0.00,,---,0.00,VWS V14.01,2013-01-31 16:23:00,
2013-01-31 10:28:00,76.5,51.0,27.08,SE,142,13.2,13.2,32,0.00,,---,0.00,VWS V14.01,2013-01-31 16:28:00,
2013-01-31 10:33:00,76.5,51.0,27.08,SE,132,8.3,10.1,32,0.00,,---,0.00,VWS V14.01,2013-01-31 16:33:00,
2013-01-31 10:38:00,76.5,51.0,27.08,ENE,65,12.3,12.3,32,0.00,,---,0.00,VWS V14.01,2013-01-31 16:38:00,
2013-01-31 10:43:00,76.5,51.0,27.08,ENE,64,8.3,15.4,32,0.00,,---,0.00,VWS V14.01,2013-01-31 16:43:00,
2013-01-31 10:48:00,76.5,51.0,27.08,SE,126,10.5,10.5,32,0.00,,---,0.00,VWS V14.01,2013-01-31 16:48:00,
2013-01-31 10:53:00,76.5,51.0,27.08,SE,137,7.6,8.1,32,0.00,,---,0.00,VWS V14.01,2013-01-31 16:53:00,
2013-01-31 10:58:00,76.5,51.0,27.08,ENE,74,8.1,8.7,32,0.00,,---,0.00,VWS V14.01,2013-01-31 16:58:00,
2013-01-31 11:03:00,76.5,51.0,27.08,ESE,105,8.7,8.7,32,0.00,,---,0.00,VWS V14.01,2013-01-31 17:03:00,
2013-01-31 11:08:00,76.5,51.0,27.08,SE,125,5.4,7.2,32,0.00,,---,0.00,VWS V14.01,2013-01-31 17:08:00,
2013-01-31 11:13:00,76.5,51.0,27.08,NNE,30,8.7,8.7,32,0.00,,---,0.00,VWS V14.01,2013-01-31 17:13:00,
2013-01-31 11:18:00,76.5,51.0,27.08,ESE,122,12.3,12.3,32,0.00,,---,0.00,VWS V14.01,2013-01-31 17:18:00,
2013-01-31 11:23:00,76.5,51.0,27.08,SE,131,9.6,9.6,32,0.00,,---,0.00,VWS V14.01,2013-01-31 17:23:00,
2013-01-31 11:28:00,76.5,51.0,27.08,ESE,110,10.5,18.8,32,0.00,,---,0.00,VWS V14.01,2013-01-31 17:28:00,
2013-01-31 11:33:00,76.5,51.0,27.08,East,98,5.8,6.7,32,0.00,,---,0.00,VWS V14.01,2013-01-31 17:33:00,
2013-01-31 11:43:00,76.5,51.0,27.05,North,357,6.3,13.2,32,0.00,,---,0.00,VWS V14.01,2013-01-31 17:43:00,
2013-01-31 11:48:00,76.5,51.0,27.05,East,97,8.7,8.7,32,0.00,,---,0.00,VWS V14.01,2013-01-31 17:48:00,
2013-01-31 11:53:00,76.5,51.0,27.08,ENE,77,5.8,13.2,32,0.00,,---,0.00,VWS V14.01,2013-01-31 17:53:00,
2013-01-31 11:58:00,76.5,51.0,27.08,East,97,11.0,11.0,32,0.00,,---,0.00,VWS V14.01,2013-01-31 17:58:00,
2013-01-31 12:03:00,76.5,51.0,27.08,SSE,154,4.0,7.2,32,0.00,,---,0.00,VWS V14.01,2013-01-31 18:03:00,
2013-01-31 12:08:00,76.5,51.0,27.08,East,96,11.0,12.8,32,0.00,,---,0.00,VWS V14.01,2013-01-31 18:08:00,
2013-01-31 12:13:00,76.5,51.0,27.08,SE,139,6.3,15.4,32,0.00,,---,0.00,VWS V14.01,2013-01-31 18:13:00,
2013-01-31 12:18:00,76.5,51.0,27.08,ESE,105,8.1,12.8,32,0.00,,---,0.00,VWS V14.01,2013-01-31 18:18:00,
2013-01-31 12:23:00,76.5,51.0,27.05,SE,129,11.0,15.9,32,0.00,,---,0.00,VWS V14.01,2013-01-31 18:23:00,
2013-01-31 12:28:00,76.5,51.0,27.05,ENE,65,11.4,11.4,32,0.00,,---,0.00,VWS V14.01,2013-01-31 18:28:00,
2013-01-31 12:33:00,76.5,51.0,27.05,ESE,108,4.0,12.8,32,0.00,,---,0.00,VWS V14.01,2013-01-31 18:33:00,
2013-01-31 12:38:00,76.5,51.0,27.05,East,97,13.2,19.7,32,0.00,,---,0.00,VWS V14.01,2013-01-31 18:38:00,
2013-01-31 12:43:00,76.5,51.0,27.05,East,82,5.8,7.6,32,0.00,,---,0.00,VWS V14.01,2013-01-31 18:43:00,
2013-01-31 12:48:00,76.5,51.0,27.05,East,88,6.3,13.2,32,0.00,,---,0.00,VWS V14.01,2013-01-31 18:48:00,
2013-01-31 12:53:00,76.5,51.0,27.05,ESE,102,8.1,15.0,32,0.00,,---,0.00,VWS V14.01,2013-01-31 18:53:00,
2013-01-31 12:58:00,76.5,51.0,27.05,SE,133,8.1,11.0,32,0.00,,---,0.00,VWS V14.01,2013-01-31 18:58:00,
2013-01-31 13:03:00,76.5,51.0,27.05,ENE,71,10.1,13.2,32,0.00,,---,0.00,VWS V14.01,2013-01-31 19:03:00,
2013-01-31 13:08:00,76.5,51.0,27.05,East,94,15.9,15.9,32,0.00,,---,0.00,VWS V14.01,2013-01-31 19:08:00,
2013-01-31 13:13:00,76.5,51.0,27.05,East,100,7.6,14.5,32,0.00,,---,0.00,VWS V14.01,2013-01-31 19:13:00,
2013-01-31 13:18:00,76.5,51.0,27.05,East,94,10.1,16.3,32,0.00,,---,0.00,VWS V14.01,2013-01-31 19:18:00,
2013-01-31 13:23:00,76.5,51.0,27.05,SE,131,10.5,10.5,32,0.00,,---,0.00,VWS V14.01,2013-01-31 19:23:00,
2013-01-31 13:28:00,76.5,51.0,27.05,SE,124,8.3,8.3,32,0.00,,---,0.00,VWS V14.01,2013-01-31 19:28:00,
2013-01-31 13:33:00,76.5,51.0,27.05,SE,136,5.4,6.3,32,0.00,,---,0.00,VWS V14.01,2013-01-31 19:33:00,
2013-01-31 13:38:00,76.5,51.0,27.05,ENE,72,3.6,5.4,32,0.00,,---,0.00,VWS V14.01,2013-01-31 19:38:00,
2013-01-31 13:43:00,76.5,51.0,27.05,East,99,8.3,8.3,32,0.00,,---,0.00,VWS V14.01,2013-01-31 19:43:00,
2013-01-31 13:48:00,76.5,51.0,27.05,SE,133,3.6,9.2,32,0.00,,---,0.00,VWS V14.01,2013-01-31 19:48:00,
2013-01-31 13:53:00,76.5,51.0,27.05,SE,142,6.3,13.2,32,0.00,,---,0.00,VWS V14.01,2013-01-31 19:53:00,
2013-01-31 13:58:00,76.5,51.0,27.05,East,94,5.4,7.6,32,0.00,,---,0.00,VWS V14.01,2013-01-31 19:58:00,
2013-01-31 14:03:00,76.5,51.0,27.05,ESE,113,4.0,6.3,32,0.00,,---,0.00,VWS V14.01,2013-01-31 20:03:00,
2013-01-31 14:08:00,76.5,51.0,27.02,SE,128,6.3,6.7,32,0.00,,---,0.00,VWS V14.01,2013-01-31 20:08:00,
2013-01-31 14:13:00,76.5,51.0,27.02,ESE,115,6.3,14.5,32,0.00,,---,0.00,VWS V14.01,2013-01-31 20:13:00,
2013-01-31 14:18:00,76.5,51.0,27.02,SE,127,6.3,8.7,32,0.00,,---,0.00,VWS V14.01,2013-01-31 20:18:00,
2013-01-31 14:23:00,76.5,51.0,27.02,SE,140,5.8,7.6,32,0.00,,---,0.00,VWS V14.01,2013-01-31 20:23:00,
2013-01-31 14:28:00,76.5,51.0,27.02,ESE,104,7.6,10.5,32,0.00,,---,0.00,VWS V14.01,2013-01-31 20:28:00,
2013-01-31 14:33:00,76.5,51.0,27.02,East,81,7.6,7.6,32,0.00,,---,0.00,VWS V14.01,2013-01-31 20:33:00,
2013-01-31 14:38:00,76.5,51.0,27.02,East,94,5.8,13.2,32,0.00,,---,0.00,VWS V14.01,2013-01-31 20:38:00,
2013-01-31 14:43:00,76.5,51.0,27.02,ESE,117,8.3,9.6,32,0.00,,---,0.00,VWS V14.01,2013-01-31 20:43:00,
2013-01-31 14:48:00,76.5,51.0,27.02,ENE,57,8.1,16.8,32,0.00,,---,0.00,VWS V14.01,2013-01-31 20:48:00,
2013-01-31 14:53:00,76.5,51.0,27.02,SE,129,6.3,8.1,32,0.00,,---,0.00,VWS V14.01,2013-01-31 20:53:00,
2013-01-31 14:58:00,76.5,51.0,27.02,SSE,157,10.5,11.0,32,0.00,,---,0.00,VWS V14.01,2013-01-31 20:58:00,
2013-01-31 15:03:00,76.5,51.0,27.02,SE,139,6.3,6.3,32,0.00,,---,0.00,VWS V14.01,2013-01-31 21:03:00,
2013-01-31 15:08:00,76.5,51.0,27.02,SE,128,6.3,15.4,32,0.00,,---,0.00,VWS V14.01,2013-01-31 21:08:00,
2013-01-31 15:13:00,76.5,51.0,27.02,SSE,157,9.6,9.6,32,0.00,,---,0.00,VWS V14.01,2013-01-31 21:13:00,
2013-01-31 15:18:00,76.5,51.0,27.02,SSE,150,3.6,11.0,32,0.00,,---,0.00,VWS V14.01,2013-01-31 21:18:00,
2013-01-31 15:23:00,76.5,51.0,27.02,ESE,105,10.5,12.8,32,0.00,,---,0.00,VWS V14.01,2013-01-31 21:23:00,
2013-01-31 15:28:00,76.5,51.0,27.02,SSE,153,5.8,11.0,32,0.00,,---,0.00,VWS V14.01,2013-01-31 21:28:00,
2013-01-31 15:33:00,76.5,51.0,27.02,SSE,156,5.4,7.6,32,0.00,,---,0.00,VWS V14.01,2013-01-31 21:33:00,
2013-01-31 15:38:00,76.5,51.0,27.02,SE,127,7.2,10.1,32,0.00,,---,0.00,VWS V14.01,2013-01-31 21:38:00,
2013-01-31 15:43:00,76.5,51.0,27.02,SE,125,8.7,10.1,32,0.00,,---,0.00,VWS V14.01,2013-01-31 21:43:00,
2013-01-31 15:48:00,76.5,51.0,27.02,ESE,110,15.4,15.4,32,0.00,,---,0.00,VWS V14.01,2013-01-31 21:48:00,
2013-01-31 15:53:00,76.5,51.0,27.02,East,96,8.7,11.4,32,0.00,,---,0.00,VWS V14.01,2013-01-31 21:53:00,
2013-01-31 15:58:00,76.5,51.0,27.02,ESE,106,3.6,5.8,32,0.00,,---,0.00,VWS V14.01,2013-01-31 21:58:00,
2013-01-31 16:03:00,76.5,51.0,27.02,East,91,14.5,14.5,32,0.00,,---,0.00,VWS V14.01,2013-01-31 22:03:00,
2013-01-31 16:08:00,76.5,51.0,27.02,ESE,110,7.6,8.7,32,0.00,,---,0.00,VWS V14.01,2013-01-31 22:08:00,
2013-01-31 16:13:00,76.5,51.0,27.02,East,86,3.6,8.3,32,0.00,,---,0.00,VWS V14.01,2013-01-31 22:13:00,
2013-01-31 16:18:00,76.5,51.0,27.02,ESE,116,10.1,13.2,32,0.00,,---,0.00,VWS V14.01,2013-01-31 22:18:00,
2013-01-31 16:23:00,76.5,51.0,27.02,ENE,72,4.9,8.1,32,0.00,,---,0.00,VWS V14.01,2013-01-31 22:23:00,
2013-01-31 16:28:00,76.5,51.0,27.02,SE,124,7.6,15.4,32,0.00,,---,0.00,VWS V14.01,2013-01-31 22:28:00,
2013-01-31 16:33:00,76.5,51.0,27.02,SE,132,5.8,10.5,32,0.00,,---,0.00,VWS V14.01,2013-01-31 22:33:00,
2013-01-31 16:38:00,76.5,51.0,27.02,SE,142,7.2,10.1,32,0.00,,---,0.00,VWS V14.01,2013-01-31 22:38:00,
2013-01-31 16:43:00,76.5,51.0,27.05,ESE,114,5.8,6.3,32,0.00,,---,0.00,VWS V14.01,2013-01-31 22:43:00,
2013-01-31 16:48:00,76.5,51.0,27.05,ESE,115,6.3,14.5,32,0.00,,---,0.00,VWS V14.01,2013-01-31 22:48:00,
2013-01-31 16:53:00,76.5,51.0,27.05,ESE,115,8.1,8.1,32,0.00,,---,0.00,VWS V14.01,2013-01-31 22:53:00,
2013-01-31 16:58:00,76.5,51.0,27.05,SE,141,5.8,5.8,32,0.00,,---,0.00,VWS V14.01,2013-01-31 22:58:00,
2013-01-31 17:03:00,76.5,51.0,27.05,East,88,5.4,8.3,32,0.00,,---,0.00,VWS V14.01,2013-01-31 23:03:00,
2013-01-31 17:08:00,76.5,51.0,27.02,East,90,13.2,13.2,32,0.00,,---,0.00,VWS V14.01,2013-01-31 23:08:00,
2013-01-31 17:13:00,76.5,51.0,27.02,SE,140,13.2,13.2,32,0.00,,---,0.00,VWS V14.01,2013-01-31 23:13:00,
2013-01-31 17:18:00,76.5,51.0,27.02,East,92,5.4,8.1,32,0.00,,---,0.00,VWS V14.01,2013-01-31 23:18:00,
2013-01-31 17:23:00,76.5,51.0,27.02,SSE,154,8.3,12.3,32,0.00,,---,0.00,VWS V14.01,2013-01-31 23:23:00,
2013-01-31 17:28:00,76.5,51.0,27.02,SE,130,8.7,10.5,32,0.00,,---,0.00,VWS V14.01,2013-01-31 23:28:00,
2013-01-31 17:33:00,76.5,51.0,27.02,SSE,155,8.3,19.2,32,0.00,,---,0.00,VWS V14.01,2013-01-31 23:33:00,
2013-01-31 17:38:00,76.5,51.0,27.02,ESE,120,5.4,7.6,32,0.00,,---,0.00,VWS V14.01,2013-01-31 23:38:00,
2013-01-31 17:43:00,76.5,51.0,27.02,SE,136,10.1,10.1,32,0.00,,---,0.00,VWS V14.01,2013-01-31 23:43:00,
2013-01-31 17:48:00,76.5,51.0,27.02,East,90,2.7,11.4,32,0.00,,---,0.00,VWS V14.01,2013-01-31 23:48:00,
2013-01-31 17:53:00,76.5,51.0,27.02,SSE,163,5.4,10.1,32,0.00,,---,0.00,VWS V14.01,2013-01-31 23:53:00,
2013-01-31 17:58:00,76.5,51.0,27.02,East,94,10.1,10.1,32,0.00,,---,0.00,VWS V14.01,2013-01-31 23:58:00,
2013-01-31 18:03:00,76.5,51.0,27.02,ENE,78,10.1,10.1,32,0.00,,---,0.00,VWS V14.01,2013-02-01 00:03:00,
2013-01-31 18:08:00,76.5,51.0,27.02,ESE,123,8.3,13.2,32,0.00,,---,0.00,VWS V14.01,2013-02-01 00:08:00,
2013-01-31 18:13:00,76.5,51.0,27.05,ESE,111,11.0,11.0,32,0.00,,---,0.00,VWS V14.01,2013-02-01 00:13:00,
2013-01-31 18:18:00,76.5,51.0,27.05,East,90,6.3,10.1,32,0.00,,---,0.00,VWS V14.01,2013-02-01 00:18:00,
2013-01-31 18:23:00,76.5,51.0,27.05,ESE,117,8.3,8.3,32,0.00,,---,0.00,VWS V14.01,2013-02-01 00:23:00,
2013-01-31 18:28:00,76.5,51.0,27.05,East,95,11.9,11.9,32,0.00,,---,0.00,VWS V14.01,2013-02-01 00:28:00,
2013-01-31 18:33:00,76.5,51.0,27.05,SE,134,7.6,14.5,32,0.00,,---,0.00,VWS V14.01,2013-02-01 00:33:00,
2013-01-31 18:38:00,76.5,51.0,27.02,SSE,159,5.8,7.6,32,0.00,,---,0.00,VWS V14.01,2013-02-01 00:38:00,
2013-01-31 18:43:00,76.5,51.0,27.02,East,88,8.3,11.0,32,0.00,,---,0.00,VWS V14.01,2013-02-01 00:43:00,
2013-01-31 18:48:00,76.5,51.0,27.02,ENE,73,12.3,12.3,32,0.00,,---,0.00,VWS V14.01,2013-02-01 00:48:00,
2013-01-31 18:53:00,76.5,51.0,27.02,East,93,5.8,8.3,32,0.00,,---,0.00,VWS V14.01,2013-02-01 00:53:00,
2013-01-31 18:58:00,76.5,51.0,27.05,SE,137,6.3,6.3,32,0.00,,---,0.00,VWS V14.01,2013-02-01 00:58:00,
2013-01-31 19:03:00,76.5,51.0,27.05,SE,140,5.4,10.5,32,0.00,,---,0.00,VWS V14.01,2013-02-01 01:03:00,
2013-01-31 19:08:00,76.5,51.0,27.05,ESE,114,5.4,10.1,32,0.00,,---,0.00,VWS V14.01,2013-02-01 01:08:00,
2013-01-31 19:13:00,76.5,51.0,27.05,South,176,5.4,5.4,32,0.00,,---,0.00,VWS V14.01,2013-02-01 01:13:00,
2013-01-31 19:18:00,76.5,51.0,27.05,ESE,115,6.3,6.7,32,0.00,,---,0.00,VWS V14.01,2013-02-01 01:18:00,
2013-01-31 19:23:00,76.5,51.0,27.05,ESE,107,10.1,10.5,32,0.00,,---,0.00,VWS V14.01,2013-02-01 01:23:00,
2013-01-31 19:28:00,76.5,51.0,27.05,SE,124,10.5,10.5,32,0.00,,---,0.00,VWS V14.01,2013-02-01 01:28:00,
2013-01-31 19:33:00,76.5,51.0,27.05,South,170,6.3,8.7,32,0.00,,---,0.00,VWS V14.01,2013-02-01 01:33:00,
2013-01-31 19:38:00,76.5,51.0,27.05,SE,124,16.8,16.8,32,0.00,,---,0.00,VWS V14.01,2013-02-01 01:38:00,
2013-01-31 19:43:00,76.5,51.0,27.05,SSE,167,6.3,10.5,32,0.00,,---,0.00,VWS V14.01,2013-02-01 01:43:00,
2013-01-31 19:48:00,76.5,51.0,27.05,SE,130,5.8,13.2,32,0.00,,---,0.00,VWS V14.01,2013-02-01 01:48:00,
2013-01-31 19:53:00,76.5,51.0,27.05,ENE,69,14.5,14.5,32,0.00,,---,0.00,VWS V14.01,2013-02-01 01:53:00,
2013-01-31 19:58:00,76.5,51.0,27.05,SE,137,6.3,6.3,32,0.00,,---,0.00,VWS V14.01,2013-02-01 01:58:00,
2013-01-31 20:03:00,76.5,51.0,27.05,ENE,57,9.2,11.0,32,0.00,,---,0.00,VWS V14.01,2013-02-01 02:03:00,
2013-01-31 20:08:00,76.5,51.0,27.08,East,84,7.6,11.0,32,0.00,,---,0.00,VWS V14.01,2013-02-01 02:08:00,
2013-01-31 20:13:00,76.5,51.0,27.08,SE,127,7.6,19.2,32,0.00,,---,0.00,VWS V14.01,2013-02-01 02:13:00,
2013-01-31 20:18:00,76.5,51.0,27.08,SE,134,17.0,18.8,32,0.00,,---,0.00,VWS V14.01,2013-02-01 02:18:00,
2013-01-31 20:23:00,76.5,51.0,27.08,ESE,120,9.6,9.6,32,0.00,,---,0.00,VWS V14.01,2013-02-01 02:23:00,
2013-01-31 20:28:00,76.5,51.0,27.08,SE,137,5.8,15.4,32,0.00,,---,0.00,VWS V14.01,2013-02-01 02:28:00,
2013-01-31 20:33:00,76.5,51.0,27.08,ESE,120,12.8,12.8,32,0.00,,---,0.00,VWS V14.01,2013-02-01 02:33:00,
2013-01-31 20:38:00,76.5,51.0,27.08,SE,135,12.3,12.3,32,0.00,,---,0.00,VWS V14.01,2013-02-01 02:38:00,
2013-01-31 20:43:00,76.5,51.0,27.08,NE,47,5.8,5.8,32,0.00,,---,0.00,VWS V14.01,2013-02-01 02:43:00,
2013-01-31 20:48:00,76.5,51.0,27.08,SSE,147,10.1,13.2,32,0.00,,---,0.00,VWS V14.01,2013-02-01 02:48:00,
2013-01-31 20:53:00,76.5,51.0,27.08,SE,136,8.1,11.0,32,0.00,,---,0.00,VWS V14.01,2013-02-01 02:53:00,
2013-01-31 20:58:00,76.5,51.0,27.08,SE,134,12.3,12.3,32,0.00,,---,0.00,VWS V14.01,2013-02-01 02:58:00,
2013-01-31 21:03:00,76.5,51.0,27.08,ENE,75,8.1,11.0,32,0.00,,---,0.00,VWS V14.01,2013-02-01 03:03:00,
2013-01-31 21:08:00,76.5,51.0,27.08,ENE,58,12.8,12.8,32,0.00,,---,0.00,VWS V14.01,2013-02-01 03:08:00,
2013-01-31 21:13:00,76.5,51.0,27.08,SE,125,5.4,10.5,32,0.00,,---,0.00,VWS V14.01,2013-02-01 03:13:00,
2013-01-31 21:18:00,76.5,51.0,27.08,East,80,5.8,8.3,32,0.00,,---,0.00,VWS V14.01,2013-02-01 03:18:00,
2013-01-31 21:23:00,76.5,51.0,27.08,ESE,106,13.2,13.2,32,0.00,,---,0.00,VWS V14.01,2013-02-01 03:23:00,
2013-01-31 21:28:00,76.5,51.0,27.08,East,79,3.6,10.5,32,0.00,,---,0.00,VWS V14.01,2013-02-01 03:28:00,
2013-01-31 21:33:00,76.5,51.0,27.08,SE,140,8.1,8.1,32,0.00,,---,0.00,VWS V14.01,2013-02-01 03:33:00,
2013-01-31 21:38:00,76.5,51.0,27.08,East,98,10.5,12.3,32,0.00,,---,0.00,VWS V14.01,2013-02-01 03:38:00,
2013-01-31 21:43:00,76.5,51.0,27.08,ESE,104,10.1,15.0,32,0.00,,---,0.00,VWS V14.01,2013-02-01 03:43:00,
2013-01-31 21:48:00,76.5,51.0,27.08,SSE,160,8.3,10.1,32,0.00,,---,0.00,VWS V14.01,2013-02-01 03:48:00,
2013-01-31 21:53:00,76.5,51.0,27.08,East,100,21.5,21.5,32,0.00,,---,0.00,VWS V14.01,2013-02-01 03:53:00,
2013-01-31 21:58:00,76.5,51.0,27.08,SE,139,5.4,5.4,32,0.00,,---,0.00,VWS V14.01,2013-02-01 03:58:00,
2013-01-31 22:03:00,76.5,51.0,27.08,SE,133,10.5,11.0,32,0.00,,---,0.00,VWS V14.01,2013-02-01 04:03:00,
2013-01-31 22:08:00,76.5,51.0,27.08,SSE,153,10.1,10.1,32,0.00,,---,0.00,VWS V14.01,2013-02-01 04:08:00,
2013-01-31 22:13:00,76.5,51.0,27.08,ESE,104,8.1,14.5,32,0.00,,---,0.00,VWS V14.01,2013-02-01 04:13:00,
2013-01-31 22:18:00,76.5,51.0,27.08,SSE,158,5.8,12.8,32,0.00,,---,0.00,VWS V14.01,2013-02-01 04:18:00,
2013-01-31 22:23:00,76.5,51.0,27.08,East,89,8.3,8.3,32,0.00,,---,0.00,VWS V14.01,2013-02-01 04:23:00,
2013-01-31 22:28:00,76.5,51.0,27.08,ESE,103,12.8,13.2,32,0.00,,---,0.00,VWS V14.01,2013-02-01 04:28:00,
2013-01-31 22:33:00,76.5,51.0,27.08,East,92,12.3,12.3,32,0.00,,---,0.00,VWS V14.01,2013-02-01 04:33:00,
2013-01-31 22:38:00,76.5,51.0,27.08,SE,124,8.1,8.7,32,0.00,,---,0.00,VWS V14.01,2013-02-01 04:38:00,
2013-01-31 22:43:00,76.5,51.0,27.08,ESE,106,10.1,10.1,32,0.00,,---,0.00,VWS V14.01,2013-02-01 04:43:00,
2013-01-31 22:48:00,76.5,51.0,27.08,ESE,116,8.3,12.3,32,0.00,,---,0.00,VWS V14.01,2013-02-01 04:48:00,
2013-01-31 22:53:00,76.5,51.0,27.08,East,81,4.0,8.7,32,0.00,,---,0.00,VWS V14.01,2013-02-01 04:53:00,
2013-01-31 22:58:00,76.5,51.0,27.08,NE,55,8.1,10.5,32,0.00,,---,0.00,VWS V14.01,2013-02-01 04:58:00,
2013-01-31 23:00:00,76.5,51.0,27.08,ESE,120,5.8,5.8,32,0.00,,---,0.00,VWS V14.01,2013-02-01 05:00:00,
2013-01-31 23:01:00,76.5,51.0,27.08,SSE,151,7.2,9.2,32,0.00,,---,0.00,VWS V14.01,2013-02-01 05:01:00,
2013-01-31 23:02:00,76.5,51.0,27.08,SE,135,10.5,10.5,32,0.00,,---,0.00,VWS V14.01,2013-02-01 05:02:00,
2013-01-31 23:07:00,76.5,51.0,27.08,East,87,9.6,9.6,32,0.00,,---,0.00,VWS V14.01,2013-02-01 05:07:00,
2013-01-31 23:12:00,76.5,51.0,27.08,South,169,6.3,10.5,32,0.00,,---,0.00,VWS V14.01,2013-02-01 05:12:00,
2013-01-31 23:17:00,76.5,51.0,27.08,East,81,8.3,8.7,32,0.00,,---,0.00,VWS V14.01,2013-02-01 05:17:00,
2013-01-31 23:22:00,76.5,51.0,27.08,East,93,8.3,17.0,32,0.00,,---,0.00,VWS V14.01,2013-02-01 05:22:00,
2013-01-31 23:27:00,76.5,51.0,27.08,SE,135,10.1,12.8,32,0.00,,---,0.00,VWS V14.01,2013-02-01 05:27:00,
2013-01-31 23:32:00,76.5,51.0,27.08,NE,47,6.3,11.9,32,0.00,,---,0.00,VWS V14.01,2013-02-01 05:32:00,
2013-01-31 23:37:00,76.5,51.0,27.08,ESE,104,11.0,11.0,32,0.00,,---,0.00,VWS V14.01,2013-02-01 05:37:00,
2013-01-31 23:42:00,76.5,51.0,27.05,SE,133,15.0,15.0,32,0.00,,---,0.00,VWS V14.01,2013-02-01 05:42:00,
2013-01-31 23:47:00,76.5,51.0,27.05,East,97,14.5,14.5,32,0.00,,---,0.00,VWS V14.01,2013-02-01 05:47:00,
2013-01-31 23:52:00,76.5,51.0,27.05,SSE,153,17.4,17.4,32,0.00,,---,0.00,VWS V14.01,2013-02-01 05:52:00,
2013-01-31 23:57:00,76.5,51.0,27.05,SE,135,17.0,17.0,32,0.00,,---,0.00,VWS V14.01,2013-02-01 05:57:00,